When you browse on this site, cookies collect data to enhance your experience and personalize the content and advertising you see.
Visit our Privacy Policy to learn more. By continuing to use the site, you agree to this use of cookies and data.
  • în România
  • Lista ţărilor
  • Pe 7 zile
  • Temperatura apei
  • Hartă satelitară
  • Meteo pe hartă
  • Widget-uri
  • user-avatar
    Intrare

    Meteo pe oră la Caracas

    Astăzi, 11 Decembrie, Marţi

    Timp Temperatura Precipitaţii Vânt Presiune Umiditate
    00:00 +16°C° 0 mm 3 m/s 651 mmHg 92%
    01:00 +16°C° 0 mm 3 m/s 651 mmHg 93%
    02:00 +14°C° 0 mm 3 m/s 650 mmHg 93%
    03:00 +14°C° 0 mm 3 m/s 650 mmHg 93%
    04:00 +14°C° 0 mm 3 m/s 650 mmHg 93%
    05:00 +14°C° 0 mm 3 m/s 650 mmHg 93%
    06:00 +16°C° 0 mm 3 m/s 651 mmHg 91%
    07:00 +16°C° 0 mm 3 m/s 651 mmHg 89%
    08:00 +17°C° 0 mm 3 m/s 651 mmHg 86%
    09:00 +19°C° 0 mm 3 m/s 652 mmHg 77%
    10:00 +21°C° 0 mm 3 m/s 653 mmHg 68%
    11:00 +24°C° 0 mm 3 m/s 653 mmHg 59%
    12:00 +24°C° 0 mm 3 m/s 653 mmHg 59%
    13:00 +24°C° 0 mm 3 m/s 652 mmHg 59%
    14:00 +25°C° 0 mm 4 m/s 652 mmHg 59%
    15:00 +23°C° 0 mm 4 m/s 651 mmHg 63%
    16:00 +22°C° 0 mm 4 m/s 650 mmHg 67%
    17:00 +22°C° 0 mm 4 m/s 650 mmHg 71%
    18:00 +20°C° 0 mm 4 m/s 650 mmHg 77%
    19:00 +19°C° 0 mm 4 m/s 650 mmHg 84%
    20:00 +18°C° 0 mm 3 m/s 650 mmHg 91%
    21:00 +18°C° 0.1 mm 3 m/s 650 mmHg 92%
    22:00 +17°C° 0.1 mm 3 m/s 651 mmHg 93%
    23:00 +17°C° 0.1 mm 3 m/s 651 mmHg 94%

    Mâine, 12 Decembrie, Miercuri

    Timp Temperatura Precipitaţii Vânt Presiune Umiditate
    00:00 +17°C° 0.1 mm 3 m/s 651 mmHg 95%
    01:00 +17°C° 0.1 mm 3 m/s 651 mmHg 95%
    02:00 +17°C° 0.1 mm 3 m/s 650 mmHg 95%
    03:00 +17°C° 0.1 mm 3 m/s 650 mmHg 96%
    04:00 +17°C° 0.1 mm 3 m/s 650 mmHg 96%
    05:00 +17°C° 0.1 mm 3 m/s 650 mmHg 96%
    06:00 +17°C° 0 mm 3 m/s 650 mmHg 94%
    07:00 +18°C° 0 mm 3 m/s 651 mmHg 91%
    08:00 +18°C° 0 mm 3 m/s 651 mmHg 89%
    09:00 +20°C° 0 mm 3 m/s 652 mmHg 80%
    10:00 +22°C° 0 mm 3 m/s 652 mmHg 71%
    11:00 +25°C° 0 mm 3 m/s 653 mmHg 62%
    12:00 +25°C° 0.2 mm 3 m/s 652 mmHg 63%
    13:00 +25°C° 0.2 mm 3 m/s 651 mmHg 65%
    14:00 +25°C° 0.2 mm 3 m/s 651 mmHg 67%
    15:00 +24°C° 0.8 mm 3 m/s 650 mmHg 71%
    16:00 +22°C° 0.8 mm 3 m/s 650 mmHg 75%
    17:00 +21°C° 0.8 mm 3 m/s 649 mmHg 79%
    18:00 +20°C° 0.3 mm 3 m/s 649 mmHg 83%
    19:00 +19°C° 0.3 mm 3 m/s 649 mmHg 88%
    20:00 +18°C° 0.3 mm 3 m/s 649 mmHg 92%
    21:00 +18°C° 0.1 mm 3 m/s 650 mmHg 93%
    22:00 +18°C° 0.1 mm 3 m/s 650 mmHg 94%
    23:00 +18°C° 0.1 mm 3 m/s 650 mmHg 95%

    Poimâine, 13 Decembrie, Joi

    Timp Temperatura Precipitaţii Vânt Presiune Umiditate
    00:00 +17°C° 0.1 mm 3 m/s 650 mmHg 95%
    01:00 +17°C° 0.1 mm 3 m/s 650 mmHg 95%
    02:00 +17°C° 0.1 mm 3 m/s 650 mmHg 95%
    03:00 +17°C° 0.2 mm 3 m/s 649 mmHg 95%
    04:00 +17°C° 0.2 mm 3 m/s 649 mmHg 96%
    05:00 +17°C° 0.2 mm 3 m/s 649 mmHg 96%
    06:00 +17°C° 0.1 mm 3 m/s 650 mmHg 94%
    07:00 +18°C° 0.1 mm 3 m/s 650 mmHg 93%
    08:00 +18°C° 0.1 mm 3 m/s 651 mmHg 91%
    09:00 +19°C° 0 mm 3 m/s 651 mmHg 86%
    10:00 +20°C° 0 mm 3 m/s 652 mmHg 81%
    11:00 +21°C° 0 mm 3 m/s 652 mmHg 75%
    12:00 +22°C° 0 mm 3 m/s 652 mmHg 71%
    13:00 +24°C° 0 mm 3 m/s 651 mmHg 66%
    14:00 +25°C° 0 mm 4 m/s 651 mmHg 61%
    15:00 +23°C° 0.1 mm 4 m/s 650 mmHg 66%
    16:00 +22°C° 0.1 mm 4 m/s 650 mmHg 70%
    17:00 +21°C° 0.1 mm 4 m/s 649 mmHg 74%
    18:00 +20°C° 0.1 mm 3 m/s 650 mmHg 80%
    19:00 +19°C° 0.1 mm 3 m/s 650 mmHg 86%
    20:00 +18°C° 0.1 mm 3 m/s 650 mmHg 92%
    21:00 +18°C° 0.2 mm 3 m/s 650 mmHg 93%
    22:00 +17°C° 0.2 mm 3 m/s 650 mmHg 94%
    23:00 +17°C° 0.2 mm 3 m/s 651 mmHg 95%

    14 Decembrie, Vineri

    Timp Temperatura Precipitaţii Vânt Presiune Umiditate
    00:00 +17°C° 0.1 mm 3 m/s 650 mmHg 95%
    01:00 +17°C° 0.1 mm 3 m/s 650 mmHg 95%
    02:00 +17°C° 0.1 mm 3 m/s 649 mmHg 95%
    03:00 +16°C° 0.1 mm 3 m/s 649 mmHg 95%
    04:00 +16°C° 0.1 mm 3 m/s 649 mmHg 95%
    05:00 +16°C° 0.1 mm 3 m/s 649 mmHg 96%
    06:00 +16°C° 0.1 mm 3 m/s 650 mmHg 94%
    07:00 +17°C° 0.1 mm 3 m/s 651 mmHg 92%
    08:00 +17°C° 0.1 mm 3 m/s 651 mmHg 91%
    09:00 +18°C° 0 mm 3 m/s 652 mmHg 84%
    10:00 +19°C° 0 mm 3 m/s 652 mmHg 78%
    11:00 +21°C° 0 mm 3 m/s 653 mmHg 72%
    12:00 +21°C° 0 mm 3 m/s 652 mmHg 68%
    13:00 +22°C° 0 mm 4 m/s 651 mmHg 65%
    14:00 +23°C° 0 mm 4 m/s 651 mmHg 61%
    15:00 +22°C° 0 mm 4 m/s 650 mmHg 65%
    16:00 +21°C° 0 mm 4 m/s 650 mmHg 68%
    17:00 +21°C° 0 mm 4 m/s 650 mmHg 71%
    18:00 +19°C° 0 mm 4 m/s 650 mmHg 77%
    19:00 +18°C° 0 mm 3 m/s 650 mmHg 83%
    20:00 +17°C° 0 mm 3 m/s 650 mmHg 90%
    21:00 +17°C° 0.1 mm 3 m/s 650 mmHg 91%
    22:00 +17°C° 0.1 mm 3 m/s 650 mmHg 92%
    23:00 +17°C° 0.1 mm 3 m/s 651 mmHg 93%

    15 Decembrie, Sâmbătă

    Timp Temperatura Precipitaţii Vânt Presiune Umiditate
    00:00 +16°C° 0.1 mm 3 m/s 650 mmHg 93%
    01:00 +16°C° 0.1 mm 3 m/s 650 mmHg 94%
    02:00 +16°C° 0.1 mm 3 m/s 650 mmHg 94%
    03:00 +16°C° 0.1 mm 3 m/s 650 mmHg 95%
    04:00 +16°C° 0.1 mm 3 m/s 650 mmHg 95%
    05:00 +16°C° 0.1 mm 3 m/s 650 mmHg 95%
    06:00 +16°C° 0 mm 3 m/s 650 mmHg 92%
    07:00 +16°C° 0 mm 3 m/s 651 mmHg 90%
    08:00 +17°C° 0 mm 3 m/s 652 mmHg 88%
    09:00 +19°C° 0 mm 3 m/s 652 mmHg 77%
    10:00 +21°C° 0 mm 3 m/s 653 mmHg 66%
    11:00 +24°C° 0 mm 3 m/s 653 mmHg 56%
    12:00 +24°C° 0 mm 3 m/s 653 mmHg 54%
    13:00 +23°C° 0 mm 4 m/s 652 mmHg 53%
    14:00 +25°C° 0 mm 4 m/s 652 mmHg 52%
    15:00 +23°C° 0 mm 4 m/s 651 mmHg 57%
    16:00 +22°C° 0 mm 4 m/s 651 mmHg 61%
    17:00 +21°C° 0 mm 4 m/s 650 mmHg 66%
    18:00 +20°C° 0 mm 4 m/s 650 mmHg 74%
    19:00 +18°C° 0 mm 3 m/s 650 mmHg 82%
    20:00 +17°C° 0 mm 3 m/s 650 mmHg 89%
    21:00 +17°C° 0.1 mm 3 m/s 651 mmHg 91%
    22:00 +17°C° 0.1 mm 3 m/s 651 mmHg 92%
    23:00 +16°C° 0.1 mm 3 m/s 651 mmHg 93%

    16 Decembrie, Duminică

    Timp Temperatura Precipitaţii Vânt Presiune Umiditate
    00:00 +16°C° 0.1 mm 3 m/s 651 mmHg 93%
    01:00 +16°C° 0.1 mm 3 m/s 650 mmHg 94%
    02:00 +16°C° 0.1 mm 3 m/s 650 mmHg 94%
    03:00 +16°C° 0.1 mm 3 m/s 650 mmHg 94%
    04:00 +16°C° 0.1 mm 3 m/s 650 mmHg 94%
    05:00 +16°C° 0.1 mm 2 m/s 650 mmHg 94%
    06:00 +16°C° 0 mm 2 m/s 651 mmHg 93%
    07:00 +16°C° 0 mm 2 m/s 651 mmHg 91%
    08:00 +17°C° 0 mm 2 m/s 652 mmHg 89%
    09:00 +18°C° 0 mm 2 m/s 652 mmHg 78%
    10:00 +20°C° 0 mm 2 m/s 653 mmHg 68%
    11:00 +22°C° 0 mm 3 m/s 653 mmHg 57%
    12:00 +24°C° 0 mm 3 m/s 653 mmHg 55%
    13:00 +24°C° 0 mm 3 m/s 652 mmHg 52%
    14:00 +25°C° 0 mm 3 m/s 651 mmHg 50%
    15:00 +24°C° 0 mm 3 m/s 651 mmHg 54%
    16:00 +22°C° 0 mm 4 m/s 650 mmHg 59%
    17:00 +21°C° 0 mm 4 m/s 650 mmHg 63%
    18:00 +19°C° 0 mm 3 m/s 650 mmHg 71%
    19:00 +18°C° 0 mm 3 m/s 650 mmHg 79%
    20:00 +16°C° 0 mm 3 m/s 650 mmHg 87%
    21:00 +16°C° 0 mm 3 m/s 650 mmHg 89%
    22:00 +16°C° 0 mm 3 m/s 650 mmHg 91%
    23:00 +16°C° 0 mm 3 m/s 650 mmHg 93%
    Arată mai mult